STARLINK-11175 [DTC] (60191 NORAD) Tracking and Keplerian Element Data

This shows tracking and keplerian element data for the satellite.

Feedback or suggestion? Click here.




ElementValue
Catalog60191
NameSTARLINK-11175 [DTC]
Epoch Orbit1598
Epoch Day286.84788327
Epoch Year2024
RAAN169.5839
Inclination53.1578
Eccentricity9.47E-05
Argument of Perigee105.7437
Mean Anonmoly254.3685
Mean Motion15.69763491
Decay Rate0.0005411
L11 60191U 24124J 24286.84788327 .00054110 00000+0 44758-3 0 9990
L22 60191 53.1578 169.5839 0000947 105.7437 254.3685 15.69763491 15983



Live tracking and technical data element details for STARLINK-11175 [DTC] (NORAD 60191). STARLINK-11175 [DTC] can be tracked NOW for your location showing map with azimuth and elevation plus other details from your city location.







IsCatalogInMostPopularTable: catalog: 60191, numindb: 13
Update: records affected: 1



GetName: 60191 STARLINK-11175 [DTC]

Hit Count: updated at: Thu, 23 Jan 2025 17:18:24 GMT